owner,sensor,date,latitude,longitude,vertical_datum,direction_of_sea_water_velocity,sea_water_speed,upward_sea_water_velocity,qcFlag 
TABS,ioos:station:wmo:42045:1,2006-09-01T00:00:00Z,26.2168,-96.4998,2.0,217.9979524,29.3516916,-99999.0,'11111222,11111222,99999999' 
TABS,ioos:station:wmo:42045:1,2006-09-01T00:30:00Z,26.2168,-96.4998,2.0,222.0208599,28.84650759,-99999.0,'11111222,11111222,99999999' 
TABS,ioos:station:wmo:42045:1,2006-09-01T01:00:00Z,26.2168,-96.4998,2.0,228.3577507,17.02100173,-99999.0,'11111222,11111222,99999999' 
TABS,ioos:station:wmo:42045:1,2006-09-01T01:30:00Z,26.2168,-96.4998,2.0,223.7890521,8.366940899,-99999.0,'11133222,11111222,99999999' 
TABS,ioos:station:wmo:42045:1,2006-09-01T02:00:00Z,26.2168,-96.4998,2.0,233.1597706,22.91600314,-99999.0,'11111222,11111222,99999999' 
TABS,ioos:station:wmo:42045:1,2006-09-01T02:30:00Z,26.2168,-96.4998,2.0,233.9117717,22.27407462,-99999.0,'11111222,11111222,99999999' 
TABS,ioos:station:wmo:42045:1,2006-09-01T03:00:00Z,26.2168,-96.4998,2.0,229.4176309,19.36863702,-99999.0,'11111222,11111222,99999999' 
TABS,ioos:station:wmo:42045:1,2006-09-01T03:30:00Z,26.2168,-96.4998,2.0,231.7052416,16.65314685,-99999.0,'11111222,11111222,99999999' 
TABS,ioos:station:wmo:42045:1,2006-09-01T04:00:00Z,26.2168,-96.4998,2.0,234.8266032,16.07504899,-99999.0,'11111222,11111222,99999999' 
TABS,ioos:station:wmo:42045:1,2006-09-01T04:30:00Z,26.2168,-96.4998,2.0,225.6737196,13.82489421,-99999.0,'11111222,11111222,99999999' 
TABS,ioos:station:wmo:42045:1,2006-09-01T05:00:00Z,26.2168,-96.4998,2.0,232.3222416,13.48133895,-99999.0,'11111222,11111222,99999999' 
TABS,ioos:station:wmo:42045:1,2006-09-01T05:30:00Z,26.2168,-96.4998,2.0,223.50934,10.60311747,-99999.0,'11111222,11111222,99999999' 
TABS,ioos:station:wmo:42045:1,2006-09-01T06:00:00Z,26.2168,-96.4998,2.0,220.7226215,9.196787483,-99999.0,'11133222,11111222,99999999' 
TABS,ioos:station:wmo:42045:1,2006-09-01T06:30:00Z,26.2168,-96.4998,2.0,226.3342877,7.893452983,-99999.0,'11133222,11111222,99999999' 
TABS,ioos:station:wmo:42045:1,2006-09-01T07:00:00Z,26.2168,-96.4998,2.0,209.9928552,8.301722713,-99999.0,'11133222,11111222,99999999' 
TABS,ioos:station:wmo:42045:1,2006-09-01T07:30:00Z,26.2168,-96.4998,2.0,202.9699709,6.918590897,-99999.0,'11133222,11111222,99999999' 
TABS,ioos:station:wmo:42045:1,2006-09-01T08:00:00Z,26.2168,-96.4998,2.0,188.7327037,6.586357111,-99999.0,'11133222,11111222,99999999' 
TABS,ioos:station:wmo:42045:1,2006-09-01T08:30:00Z,26.2168,-96.4998,2.0,163.7081071,7.2720011,-99999.0,'11133222,11111222,99999999' 
TABS,ioos:station:wmo:42045:1,2006-09-01T09:00:00Z,26.2168,-96.4998,2.0,149.1677689,8.955679762,-99999.0,'11133222,11111222,99999999' 
TABS,ioos:station:wmo:42045:1,2006-09-01T09:30:00Z,26.2168,-96.4998,2.0,150.9009901,8.800823825,-99999.0,'11133222,11111222,99999999' 
TABS,ioos:station:wmo:42045:1,2006-09-01T10:00:00Z,26.2168,-96.4998,2.0,146.7197139,8.528733786,-99999.0,'11133222,11111222,99999999' 
TABS,ioos:station:wmo:42045:1,2006-09-01T10:30:00Z,26.2168,-96.4998,2.0,126.1109731,9.060794667,-99999.0,'11133222,11111222,99999999' 
TABS,ioos:station:wmo:42045:1,2006-09-01T11:00:00Z,26.2168,-96.4998,2.0,129.8124263,10.5579212,-99999.0,'11111222,11111222,99999999' 
TABS,ioos:station:wmo:42045:1,2006-09-01T11:30:00Z,26.2168,-96.4998,2.0,125.5121413,5.233469213,-99999.0,'11133222,11111222,99999999' 
TABS,ioos:station:wmo:42045:1,2006-09-01T12:00:00Z,26.2168,-96.4998,2.0,143.8762457,8.752742427,-99999.0,'11133222,11111222,99999999' 
TABS,ioos:station:wmo:42045:1,2006-09-01T12:30:00Z,26.2168,-96.4998,2.0,133.1257658,8.864789902,-99999.0,'11133222,11111222,99999999' 
TABS,ioos:station:wmo:42045:1,2006-09-01T13:00:00Z,26.2168,-96.4998,2.0,143.1496978,11.62200069,-99999.0,'11111222,11111222,99999999' 
TABS,ioos:station:wmo:42045:1,2006-09-01T13:30:00Z,26.2168,-96.4998,2.0,137.6169378,12.69874009,-99999.0,'11111222,11111222,99999999' 
TABS,ioos:station:wmo:42045:1,2006-09-01T14:00:00Z,26.2168,-96.4998,2.0,138.3888026,14.8327543,-99999.0,'11111222,11111222,99999999' 
TABS,ioos:station:wmo:42045:1,2006-09-01T14:30:00Z,26.2168,-96.4998,2.0,157.7024369,15.44485999,-99999.0,'11111222,11111222,99999999' 
TABS,ioos:station:wmo:42045:1,2006-09-01T15:00:00Z,26.2168,-96.4998,2.0,156.3847522,16.07627133,-99999.0,'11111222,11111222,99999999' 
TABS,ioos:station:wmo:42045:1,2006-09-01T15:30:00Z,26.2168,-96.4998,2.0,153.7516813,16.98095993,-99999.0,'11111222,11111222,99999999' 
TABS,ioos:station:wmo:42045:1,2006-09-01T16:00:00Z,26.2168,-96.4998,2.0,157.0851483,17.49023156,-99999.0,'11111222,11111222,99999999' 
TABS,ioos:station:wmo:42045:1,2006-09-01T16:30:00Z,26.2168,-96.4998,2.0,158.3006077,16.66061223,-99999.0,'11111222,11111222,99999999' 
TABS,ioos:station:wmo:42045:1,2006-09-01T17:00:00Z,26.2168,-96.4998,2.0,164.1059929,15.26351205,-99999.0,'11111222,11111222,99999999' 
TABS,ioos:station:wmo:42045:1,2006-09-01T17:30:00Z,26.2168,-96.4998,2.0,153.981614,16.86966508,-99999.0,'11111222,11111222,99999999' 
TABS,ioos:station:wmo:42045:1,2006-09-01T18:00:00Z,26.2168,-96.4998,2.0,161.4319989,16.36166862,-99999.0,'11111222,11111222,99999999' 
TABS,ioos:station:wmo:42045:1,2006-09-01T18:30:00Z,26.2168,-96.4998,2.0,160.3611994,17.7632711,-99999.0,'11111222,11111222,99999999' 
TABS,ioos:station:wmo:42045:1,2006-09-01T19:00:00Z,26.2168,-96.4998,2.0,158.9529924,17.62587303,-99999.0,'11111222,11111222,99999999' 
TABS,ioos:station:wmo:42045:1,2006-09-01T19:30:00Z,26.2168,-96.4998,2.0,162.8205341,17.60546506,-99999.0,'11111222,11111222,99999999' 
TABS,ioos:station:wmo:42045:1,2006-09-01T20:00:00Z,26.2168,-96.4998,2.0,157.4937672,17.81695821,-99999.0,'11111222,11111222,99999999' 
TABS,ioos:station:wmo:42045:1,2006-09-01T20:30:00Z,26.2168,-96.4998,2.0,156.4999332,16.97815655,-99999.0,'11111222,11111222,99999999' 
TABS,ioos:station:wmo:42045:1,2006-09-01T21:00:00Z,26.2168,-96.4998,2.0,158.6566948,18.57384182,-99999.0,'11111222,11111222,99999999' 
TABS,ioos:station:wmo:42045:1,2006-09-01T21:30:00Z,26.2168,-96.4998,2.0,164.5767803,21.54589984,-99999.0,'11111222,11111222,99999999' 
TABS,ioos:station:wmo:42045:1,2006-09-01T22:00:00Z,26.2168,-96.4998,2.0,168.4683476,21.81023842,-99999.0,'11111222,11111222,99999999' 
TABS,ioos:station:wmo:42045:1,2006-09-01T22:30:00Z,26.2168,-96.4998,2.0,167.9848596,20.56041099,-99999.0,'11111222,11111222,99999999' 
TABS,ioos:station:wmo:42045:1,2006-09-01T23:00:00Z,26.2168,-96.4998,2.0,178.0267751,20.62222587,-99999.0,'11111222,11111222,99999999' 
TABS,ioos:station:wmo:42045:1,2006-09-01T23:30:00Z,26.2168,-96.4998,2.0,189.0227737,19.51144536,-99999.0,'11111222,11111222,99999999' 
TABS,ioos:station:wmo:42045:1,2006-09-02T00:00:00Z,26.2168,-96.4998,2.0,187.4301396,23.73934498,-99999.0,'11111222,11111222,99999999' 
TABS,ioos:station:wmo:42045:1,2006-09-02T00:30:00Z,26.2168,-96.4998,2.0,198.9833372,23.11730953,-99999.0,'11111222,11111222,99999999' 
TABS,ioos:station:wmo:42045:1,2006-09-02T01:00:00Z,26.2168,-96.4998,2.0,199.0269165,11.931911,-99999.0,'11111222,11111222,99999999' 
TABS,ioos:station:wmo:42045:1,2006-09-02T01:30:00Z,26.2168,-96.4998,2.0,196.7265116,9.971930605,-99999.0,'11133222,11111222,99999999' 
TABS,ioos:station:wmo:42045:1,2006-09-02T02:00:00Z,26.2168,-96.4998,2.0,206.1667999,18.02761493,-99999.0,'11111222,11111222,99999999' 
TABS,ioos:station:wmo:42045:1,2006-09-02T02:30:00Z,26.2168,-96.4998,2.0,219.9378664,17.150586,-99999.0,'11111222,11111222,99999999' 
TABS,ioos:station:wmo:42045:1,2006-09-02T03:00:00Z,26.2168,-96.4998,2.0,218.4078611,15.64563837,-99999.0,'11111222,11111222,99999999' 
TABS,ioos:station:wmo:42045:1,2006-09-02T03:30:00Z,26.2168,-96.4998,2.0,228.3486663,16.34085983,-99999.0,'11111222,11111222,99999999' 
TABS,ioos:station:wmo:42045:1,2006-09-02T04:00:00Z,26.2168,-96.4998,2.0,230.5874493,16.41215403,-99999.0,'11111222,11111222,99999999' 
TABS,ioos:station:wmo:42045:1,2006-09-02T04:30:00Z,26.2168,-96.4998,2.0,232.7955778,15.43026247,-99999.0,'11111222,11111222,99999999' 
TABS,ioos:station:wmo:42045:1,2006-09-02T05:00:00Z,26.2168,-96.4998,2.0,240.9862509,13.50476212,-99999.0,'11111222,11111222,99999999' 
TABS,ioos:station:wmo:42045:1,2006-09-02T05:30:00Z,26.2168,-96.4998,2.0,246.2737373,11.55676858,-99999.0,'11111222,11111222,99999999' 
TABS,ioos:station:wmo:42045:1,2006-09-02T06:00:00Z,26.2168,-96.4998,2.0,255.2654,9.357718739,-99999.0,'11133222,11111222,99999999' 
TABS,ioos:station:wmo:42045:1,2006-09-02T06:30:00Z,26.2168,-96.4998,2.0,264.8654481,8.604522067,-99999.0,'11133222,11111222,99999999' 
TABS,ioos:station:wmo:42045:1,2006-09-02T07:00:00Z,26.2168,-96.4998,2.0,264.6979499,8.225186928,-99999.0,'11133222,11111222,99999999' 
TABS,ioos:station:wmo:42045:1,2006-09-02T07:30:00Z,26.2168,-96.4998,2.0,293.2312122,6.997320916,-99999.0,'11133222,11111222,99999999' 
TABS,ioos:station:wmo:42045:1,2006-09-02T08:00:00Z,26.2168,-96.4998,2.0,319.2620661,5.899440651,-99999.0,'11133222,11111222,99999999' 
TABS,ioos:station:wmo:42045:1,2006-09-02T08:30:00Z,26.2168,-96.4998,2.0,300.184031,6.802264329,-99999.0,'11133222,11111222,99999999' 
TABS,ioos:station:wmo:42045:1,2006-09-02T09:00:00Z,26.2168,-96.4998,2.0,337.1349507,7.900841727,-99999.0,'11133222,11111222,99999999' 
TABS,ioos:station:wmo:42045:1,2006-09-02T09:30:00Z,26.2168,-96.4998,2.0,348.8573467,6.054130821,-99999.0,'11133222,11111222,99999999' 
TABS,ioos:station:wmo:42045:1,2006-09-02T10:00:00Z,26.2168,-96.4998,2.0,8.986108717,6.722506973,-99999.0,'11133222,11111222,99999999' 
TABS,ioos:station:wmo:42045:1,2006-09-02T10:30:00Z,26.2168,-96.4998,2.0,8.303268941,7.963472861,-99999.0,'11133222,11111222,99999999' 
TABS,ioos:station:wmo:42045:1,2006-09-02T11:00:00Z,26.2168,-96.4998,2.0,4.626372965,8.30706326,-99999.0,'11133222,11111222,99999999' 
TABS,ioos:station:wmo:42045:1,2006-09-02T11:30:00Z,26.2168,-96.4998,2.0,3.960513028,2.606223321,-99999.0,'11133222,11111222,99999999' 
TABS,ioos:station:wmo:42045:1,2006-09-02T12:00:00Z,26.2168,-96.4998,2.0,12.21250881,10.21107242,-99999.0,'11111222,11111222,99999999' 
TABS,ioos:station:wmo:42045:1,2006-09-02T12:30:00Z,26.2168,-96.4998,2.0,22.86721329,12.48088539,-99999.0,'11111222,11111222,99999999' 
TABS,ioos:station:wmo:42045:1,2006-09-02T13:00:00Z,26.2168,-96.4998,2.0,31.87765076,11.39924559,-99999.0,'11111222,11111222,99999999' 
TABS,ioos:station:wmo:42045:1,2006-09-02T13:30:00Z,26.2168,-96.4998,2.0,34.94909589,11.99273947,-99999.0,'11111222,11111222,99999999' 
TABS,ioos:station:wmo:42045:1,2006-09-02T14:00:00Z,26.2168,-96.4998,2.0,40.49400013,12.15029629,-99999.0,'11111222,11111222,99999999' 
TABS,ioos:station:wmo:42045:1,2006-09-02T14:30:00Z,26.2168,-96.4998,2.0,44.27119232,13.89577274,-99999.0,'11111222,11111222,99999999' 
TABS,ioos:station:wmo:42045:1,2006-09-02T15:00:00Z,26.2168,-96.4998,2.0,51.75366347,12.98774807,-99999.0,'11111222,11111222,99999999' 
TABS,ioos:station:wmo:42045:1,2006-09-02T15:30:00Z,26.2168,-96.4998,2.0,46.0959563,13.31018407,-99999.0,'11111222,11111222,99999999' 
TABS,ioos:station:wmo:42045:1,2006-09-02T16:00:00Z,26.2168,-96.4998,2.0,55.38985438,14.50728093,-99999.0,'11111222,11111222,99999999' 
TABS,ioos:station:wmo:42045:1,2006-09-02T16:30:00Z,26.2168,-96.4998,2.0,59.91003794,13.3835907,-99999.0,'11111222,11111222,99999999' 
TABS,ioos:station:wmo:42045:1,2006-09-02T17:00:00Z,26.2168,-96.4998,2.0,72.15983741,15.5371072,-99999.0,'11111222,11111222,99999999' 
TABS,ioos:station:wmo:42045:1,2006-09-02T17:30:00Z,26.2168,-96.4998,2.0,76.70019669,16.04020573,-99999.0,'11111222,11111222,99999999' 
TABS,ioos:station:wmo:42045:1,2006-09-02T18:00:00Z,26.2168,-96.4998,2.0,81.74343641,16.01600762,-99999.0,'11111222,11111222,99999999' 
TABS,ioos:station:wmo:42045:1,2006-09-02T18:30:00Z,26.2168,-96.4998,2.0,86.2143795,17.41800505,-99999.0,'11111222,11111222,99999999' 
TABS,ioos:station:wmo:42045:1,2006-09-02T19:00:00Z,26.2168,-96.4998,2.0,92.13305045,17.73228694,-99999.0,'11111222,11111222,99999999' 
TABS,ioos:station:wmo:42045:1,2006-09-02T19:30:00Z,26.2168,-96.4998,2.0,99.67876699,16.53536815,-99999.0,'11111222,11111222,99999999' 
TABS,ioos:station:wmo:42045:1,2006-09-02T20:00:00Z,26.2168,-96.4998,2.0,102.4982126,16.26544804,-99999.0,'11111222,11111222,99999999' 
TABS,ioos:station:wmo:42045:1,2006-09-02T20:30:00Z,26.2168,-96.4998,2.0,111.0922902,15.755599,-99999.0,'11111222,11111222,99999999' 
TABS,ioos:station:wmo:42045:1,2006-09-02T21:00:00Z,26.2168,-96.4998,2.0,110.9983025,14.70665836,-99999.0,'11111222,11111222,99999999' 
TABS,ioos:station:wmo:42045:1,2006-09-02T21:30:00Z,26.2168,-96.4998,2.0,118.528339,14.48928225,-99999.0,'11111222,11111222,99999999' 
TABS,ioos:station:wmo:42045:1,2006-09-02T22:00:00Z,26.2168,-96.4998,2.0,128.3369467,14.13863501,-99999.0,'11111222,11111222,99999999' 
TABS,ioos:station:wmo:42045:1,2006-09-02T22:30:00Z,26.2168,-96.4998,2.0,135.7045361,14.94936788,-99999.0,'11111222,11111222,99999999' 
TABS,ioos:station:wmo:42045:1,2006-09-02T23:00:00Z,26.2168,-96.4998,2.0,163.9660663,8.906469559,-99999.0,'11133222,11111222,99999999' 
TABS,ioos:station:wmo:42045:1,2006-09-02T23:30:00Z,26.2168,-96.4998,2.0,184.4245636,11.79515579,-99999.0,'11111222,11111222,99999999' 
TABS,ioos:station:wmo:42045:1,2006-09-03T00:00:00Z,26.2168,-96.4998,2.0,200.9028074,11.01494439,-99999.0,'11111222,11111222,99999999' 
TABS,ioos:station:wmo:42045:1,2006-09-03T00:30:00Z,26.2168,-96.4998,2.0,224.1045127,8.146864427,-99999.0,'11133222,11111222,99999999' 
TABS,ioos:station:wmo:42045:1,2006-09-03T01:00:00Z,26.2168,-96.4998,2.0,224.2048117,6.626228188,-99999.0,'11133222,11111222,99999999' 
TABS,ioos:station:wmo:42045:1,2006-09-03T01:30:00Z,26.2168,-96.4998,2.0,216.814225,6.208002899,-99999.0,'11133222,11111222,99999999' 
TABS,ioos:station:wmo:42045:1,2006-09-03T02:00:00Z,26.2168,-96.4998,2.0,208.2290148,10.31709746,-99999.0,'11111222,11111222,99999999' 
TABS,ioos:station:wmo:42045:1,2006-09-03T02:30:00Z,26.2168,-96.4998,2.0,225.6515662,11.18715335,-99999.0,'11111222,11111222,99999999' 
TABS,ioos:station:wmo:42045:1,2006-09-03T03:00:00Z,26.2168,-96.4998,2.0,228.1193462,11.95367726,-99999.0,'11111222,11111222,99999999' 
TABS,ioos:station:wmo:42045:1,2006-09-03T03:30:00Z,26.2168,-96.4998,2.0,216.4987281,11.4322395,-99999.0,'11111222,11111222,99999999' 
TABS,ioos:station:wmo:42045:1,2006-09-03T04:00:00Z,26.2168,-96.4998,2.0,230.46282,10.10094055,-99999.0,'11111222,11111222,99999999' 
TABS,ioos:station:wmo:42045:1,2006-09-03T04:30:00Z,26.2168,-96.4998,2.0,256.8473854,12.26163529,-99999.0,'11111222,11111222,99999999' 
TABS,ioos:station:wmo:42045:1,2006-09-03T05:00:00Z,26.2168,-96.4998,2.0,264.7823384,13.63649515,-99999.0,'11111222,11111222,99999999' 
TABS,ioos:station:wmo:42045:1,2006-09-03T05:30:00Z,26.2168,-96.4998,2.0,256.5777754,10.85651878,-99999.0,'11111222,11111222,99999999' 
TABS,ioos:station:wmo:42045:1,2006-09-03T06:00:00Z,26.2168,-96.4998,2.0,270.0004209,13.53,-99999.0,'11111222,11111222,99999999' 
TABS,ioos:station:wmo:42045:1,2006-09-03T06:30:00Z,26.2168,-96.4998,2.0,271.1704757,12.73265487,-99999.0,'11111222,11111222,99999999' 
TABS,ioos:station:wmo:42045:1,2006-09-03T07:00:00Z,26.2168,-96.4998,2.0,273.3794248,13.40330183,-99999.0,'11111222,11111222,99999999' 
TABS,ioos:station:wmo:42045:1,2006-09-03T07:30:00Z,26.2168,-96.4998,2.0,281.4969571,11.43951485,-99999.0,'11111222,11111222,99999999' 
TABS,ioos:station:wmo:42045:1,2006-09-03T08:00:00Z,26.2168,-96.4998,2.0,290.6116383,14.57280001,-99999.0,'11111222,11111222,99999999' 
TABS,ioos:station:wmo:42045:1,2006-09-03T08:30:00Z,26.2168,-96.4998,2.0,287.4760327,11.5217924,-99999.0,'11111222,11111222,99999999' 
TABS,ioos:station:wmo:42045:1,2006-09-03T09:00:00Z,26.2168,-96.4998,2.0,297.7728677,13.37018324,-99999.0,'11111222,11111222,99999999' 
TABS,ioos:station:wmo:42045:1,2006-09-03T09:30:00Z,26.2168,-96.4998,2.0,303.9271096,11.41305393,-99999.0,'11111222,11111222,99999999' 
TABS,ioos:station:wmo:42045:1,2006-09-03T10:00:00Z,26.2168,-96.4998,2.0,311.7501755,10.22707192,-99999.0,'11111222,11111222,99999999' 
TABS,ioos:station:wmo:42045:1,2006-09-03T10:30:00Z,26.2168,-96.4998,2.0,312.9603043,10.72653719,-99999.0,'11111222,11111222,99999999' 
TABS,ioos:station:wmo:42045:1,2006-09-03T11:00:00Z,26.2168,-96.4998,2.0,325.5198711,9.450216929,-99999.0,'11133222,11111222,99999999' 
TABS,ioos:station:wmo:42045:1,2006-09-03T11:30:00Z,26.2168,-96.4998,2.0,305.5007057,5.355529852,-99999.0,'11133222,11111222,99999999' 
TABS,ioos:station:wmo:42045:1,2006-09-03T12:00:00Z,26.2168,-96.4998,2.0,318.5881705,10.96042426,-99999.0,'11111222,11111222,99999999' 
TABS,ioos:station:wmo:42045:1,2006-09-03T12:30:00Z,26.2168,-96.4998,2.0,311.5909876,9.987882659,-99999.0,'11133222,11111222,99999999' 
TABS,ioos:station:wmo:42045:1,2006-09-03T13:00:00Z,26.2168,-96.4998,2.0,328.9090329,7.707165497,-99999.0,'11133222,11111222,99999999' 
TABS,ioos:station:wmo:42045:1,2006-09-03T13:30:00Z,26.2168,-96.4998,2.0,313.254703,7.42806839,-99999.0,'11133222,11111222,99999999' 
TABS,ioos:station:wmo:42045:1,2006-09-03T14:00:00Z,26.2168,-96.4998,2.0,328.3556254,7.071386003,-99999.0,'11133222,11111222,99999999' 
TABS,ioos:station:wmo:42045:1,2006-09-03T14:30:00Z,26.2168,-96.4998,2.0,319.6558122,6.534011019,-99999.0,'11133222,11111222,99999999' 
TABS,ioos:station:wmo:42045:1,2006-09-03T15:00:00Z,26.2168,-96.4998,2.0,334.4715474,7.912502765,-99999.0,'11133222,11111222,99999999' 
TABS,ioos:station:wmo:42045:1,2006-09-03T15:30:00Z,26.2168,-96.4998,2.0,343.1450001,10.55336913,-99999.0,'11111222,11111222,99999999' 
TABS,ioos:station:wmo:42045:1,2006-09-03T16:00:00Z,26.2168,-96.4998,2.0,349.6411822,7.563279712,-99999.0,'11133222,11111222,99999999' 
TABS,ioos:station:wmo:42045:1,2006-09-03T16:30:00Z,26.2168,-96.4998,2.0,339.3728947,7.522240358,-99999.0,'11133222,11111222,99999999' 
TABS,ioos:station:wmo:42045:1,2006-09-03T17:00:00Z,26.2168,-96.4998,2.0,6.485745998,5.223427993,-99999.0,'11133222,11111222,99999999' 
TABS,ioos:station:wmo:42045:1,2006-09-03T17:30:00Z,26.2168,-96.4998,2.0,9.83531941,4.800552052,-99999.0,'11133222,11111222,99999999' 
TABS,ioos:station:wmo:42045:1,2006-09-03T18:00:00Z,26.2168,-96.4998,2.0,349.508758,2.471315439,-99999.0,'11133222,11111222,99999999' 
TABS,ioos:station:wmo:42045:1,2006-09-03T18:30:00Z,26.2168,-96.4998,2.0,9.039672124,0.445533388,-99999.0,'11133222,11111222,99999999' 
TABS,ioos:station:wmo:42045:1,2006-09-03T19:00:00Z,26.2168,-96.4998,2.0,38.15734782,0.178044938,-99999.0,'11133222,11111222,99999999' 
TABS,ioos:station:wmo:42045:1,2006-09-03T19:30:00Z,26.2168,-96.4998,2.0,173.2712932,5.377034499,-99999.0,'11133222,11111222,99999999' 
TABS,ioos:station:wmo:42045:1,2006-09-03T20:00:00Z,26.2168,-96.4998,2.0,178.9832434,7.891241981,-99999.0,'11133222,11111222,99999999' 
TABS,ioos:station:wmo:42045:1,2006-09-03T20:30:00Z,26.2168,-96.4998,2.0,181.6133247,8.523379611,-99999.0,'11133222,11111222,99999999' 
TABS,ioos:station:wmo:42045:1,2006-09-03T21:00:00Z,26.2168,-96.4998,2.0,189.848781,8.7692417,-99999.0,'11133222,11111222,99999999' 
TABS,ioos:station:wmo:42045:1,2006-09-03T21:30:00Z,26.2168,-96.4998,2.0,194.2190945,10.62553999,-99999.0,'11111222,11111222,99999999' 
TABS,ioos:station:wmo:42045:1,2006-09-03T22:00:00Z,26.2168,-96.4998,2.0,213.5396918,12.70545159,-99999.0,'11111222,11111222,99999999' 
TABS,ioos:station:wmo:42045:1,2006-09-03T22:30:00Z,26.2168,-96.4998,2.0,213.3250606,13.94267191,-99999.0,'11111222,11111222,99999999' 
TABS,ioos:station:wmo:42045:1,2006-09-03T23:00:00Z,26.2168,-96.4998,2.0,207.8465315,12.39539027,-99999.0,'11111222,11111222,99999999' 
TABS,ioos:station:wmo:42045:1,2006-09-03T23:30:00Z,26.2168,-96.4998,2.0,219.8238927,15.75493891,-99999.0,'11111222,11111222,99999999' 
TABS,ioos:station:wmo:42045:1,2006-09-04T00:00:00Z,26.2168,-96.4998,2.0,216.5737177,15.1042014,-99999.0,'11111222,11111222,99999999' 
TABS,ioos:station:wmo:42045:1,2006-09-04T00:30:00Z,26.2168,-96.4998,2.0,235.4949663,15.4111291,-99999.0,'11111222,11111222,99999999' 
TABS,ioos:station:wmo:42045:1,2006-09-04T01:00:00Z,26.2168,-96.4998,2.0,231.2333441,8.400601169,-99999.0,'11133222,11111222,99999999' 
TABS,ioos:station:wmo:42045:1,2006-09-04T01:30:00Z,26.2168,-96.4998,2.0,215.1210296,9.438394991,-99999.0,'11133222,11111222,99999999' 
TABS,ioos:station:wmo:42045:1,2006-09-04T02:00:00Z,26.2168,-96.4998,2.0,221.7210761,11.37475274,-99999.0,'11111222,11111222,99999999' 
TABS,ioos:station:wmo:42045:1,2006-09-04T02:30:00Z,26.2168,-96.4998,2.0,229.0189109,12.61044408,-99999.0,'11111222,11111222,99999999' 
TABS,ioos:station:wmo:42045:1,2006-09-04T03:00:00Z,26.2168,-96.4998,2.0,233.6860186,14.4206796,-99999.0,'11111222,11111222,99999999' 
TABS,ioos:station:wmo:42045:1,2006-09-04T03:30:00Z,26.2168,-96.4998,2.0,230.9743236,14.19804564,-99999.0,'11111222,11111222,99999999' 
TABS,ioos:station:wmo:42045:1,2006-09-04T04:00:00Z,26.2168,-96.4998,2.0,237.3185288,15.90849459,-99999.0,'11111222,11111222,99999999' 
TABS,ioos:station:wmo:42045:1,2006-09-04T04:30:00Z,26.2168,-96.4998,2.0,224.737103,15.429232,-99999.0,'11111222,11111222,99999999' 
TABS,ioos:station:wmo:42045:1,2006-09-04T05:00:00Z,26.2168,-96.4998,2.0,233.2899974,17.16406712,-99999.0,'11111222,11111222,99999999' 
TABS,ioos:station:wmo:42045:1,2006-09-04T05:30:00Z,26.2168,-96.4998,2.0,235.2209424,14.74381904,-99999.0,'11111222,11111222,99999999' 
TABS,ioos:station:wmo:42045:1,2006-09-04T06:00:00Z,26.2168,-96.4998,2.0,240.7620153,14.29060181,-99999.0,'11111222,11111222,99999999' 
TABS,ioos:station:wmo:42045:1,2006-09-04T06:30:00Z,26.2168,-96.4998,2.0,243.8850455,14.78981068,-99999.0,'11111222,11111222,99999999' 
TABS,ioos:station:wmo:42045:1,2006-09-04T07:00:00Z,26.2168,-96.4998,2.0,253.5795319,13.76125358,-99999.0,'11111222,11111222,99999999' 
TABS,ioos:station:wmo:42045:1,2006-09-04T07:30:00Z,26.2168,-96.4998,2.0,248.5547942,13.12891465,-99999.0,'11111222,11111222,99999999' 
TABS,ioos:station:wmo:42045:1,2006-09-04T08:00:00Z,26.2168,-96.4998,2.0,255.1708679,14.3788873,-99999.0,'11111222,11111222,99999999' 
TABS,ioos:station:wmo:42045:1,2006-09-04T08:30:00Z,26.2168,-96.4998,2.0,251.8898174,15.60292921,-99999.0,'11111222,11111222,99999999' 
TABS,ioos:station:wmo:42045:1,2006-09-04T09:00:00Z,26.2168,-96.4998,2.0,272.3124717,13.88130037,-99999.0,'11111222,11111222,99999999' 
TABS,ioos:station:wmo:42045:1,2006-09-04T09:30:00Z,26.2168,-96.4998,2.0,264.941486,11.79593574,-99999.0,'11111222,11111222,99999999' 
TABS,ioos:station:wmo:42045:1,2006-09-04T10:00:00Z,26.2168,-96.4998,2.0,266.2671666,12.1357406,-99999.0,'11111222,11111222,99999999' 
TABS,ioos:station:wmo:42045:1,2006-09-04T10:30:00Z,26.2168,-96.4998,2.0,265.6195289,11.78441768,-99999.0,'11111222,11111222,99999999' 
TABS,ioos:station:wmo:42045:1,2006-09-04T11:00:00Z,26.2168,-96.4998,2.0,262.6800279,9.49739438,-99999.0,'11133222,11111222,99999999' 
TABS,ioos:station:wmo:42045:1,2006-09-04T11:30:00Z,26.2168,-96.4998,2.0,262.6356623,4.759254143,-99999.0,'11133222,11111222,99999999' 
TABS,ioos:station:wmo:42045:1,2006-09-04T12:00:00Z,26.2168,-96.4998,2.0,252.0055479,9.452327756,-99999.0,'11133222,11111222,99999999' 
TABS,ioos:station:wmo:42045:1,2006-09-04T12:30:00Z,26.2168,-96.4998,2.0,245.0236258,10.16012795,-99999.0,'11111222,11111222,99999999' 
TABS,ioos:station:wmo:42045:1,2006-09-04T13:00:00Z,26.2168,-96.4998,2.0,233.6180345,8.918323834,-99999.0,'11133222,11111222,99999999' 
TABS,ioos:station:wmo:42045:1,2006-09-04T13:30:00Z,26.2168,-96.4998,2.0,224.7658258,8.662130223,-99999.0,'11133222,11111222,99999999' 
TABS,ioos:station:wmo:42045:1,2006-09-04T14:00:00Z,26.2168,-96.4998,2.0,213.0235799,7.633190683,-99999.0,'11133222,11111222,99999999' 
TABS,ioos:station:wmo:42045:1,2006-09-04T14:30:00Z,26.2168,-96.4998,2.0,217.2490368,7.550165561,-99999.0,'11133222,11111222,99999999' 
TABS,ioos:station:wmo:42045:1,2006-09-04T15:00:00Z,26.2168,-96.4998,2.0,199.8783843,7.028812133,-99999.0,'11133222,11111222,99999999' 
TABS,ioos:station:wmo:42045:1,2006-09-04T15:30:00Z,26.2168,-96.4998,2.0,199.9716281,8.724700568,-99999.0,'11133222,11111222,99999999' 
TABS,ioos:station:wmo:42045:1,2006-09-04T16:00:00Z,26.2168,-96.4998,2.0,187.1158059,7.910935469,-99999.0,'11133222,11111222,99999999' 